Year,Month,Day,Hour,Minute,Value (Times are PST for temperature in C)
2014,12,10,00,00,10.90
2014,12,10,00,01,10.90
2014,12,10,00,02,11.00
2014,12,10,00,03,11.00
2014,12,10,00,04,11.10
2014,12,10,00,05,11.10
2014,12,10,00,06,11.10
2014,12,10,00,07,11.10
2014,12,10,00,08,11.10
2014,12,10,00,09,11.10
2014,12,10,00,10,11.20
2014,12,10,00,11,11.20
2014,12,10,00,12,11.20
2014,12,10,00,13,11.20
2014,12,10,00,14,11.20
2014,12,10,00,15,11.20
2014,12,10,00,16,11.20
2014,12,10,00,17,11.20
2014,12,10,00,18,11.20
2014,12,10,00,19,11.10
2014,12,10,00,20,11.10
2014,12,10,00,21,11.10
2014,12,10,00,22,11.10
2014,12,10,00,23,11.10
2014,12,10,00,24,11.10
2014,12,10,00,25,11.10
2014,12,10,00,26,11.10
2014,12,10,00,27,11.10
2014,12,10,00,28,11.10
2014,12,10,00,29,11.10
2014,12,10,00,30,11.10
2014,12,10,00,31,11.10
2014,12,10,00,32,11.10
2014,12,10,00,33,11.00
2014,12,10,00,34,11.00
2014,12,10,00,35,11.00
2014,12,10,00,36,11.00
2014,12,10,00,37,11.00
2014,12,10,00,38,11.00
2014,12,10,00,39,11.00
2014,12,10,00,40,11.00
2014,12,10,00,41,11.00
2014,12,10,00,42,11.00
2014,12,10,00,43,11.00
2014,12,10,00,44,10.90
2014,12,10,00,45,10.90
2014,12,10,00,46,10.90
2014,12,10,00,47,10.90
2014,12,10,00,48,10.90
2014,12,10,00,49,10.90
2014,12,10,00,50,10.90
2014,12,10,00,51,10.80
2014,12,10,00,52,10.80
2014,12,10,00,53,10.80
2014,12,10,00,54,10.80
2014,12,10,00,55,10.80
2014,12,10,00,56,10.80
2014,12,10,00,57,10.80
2014,12,10,00,58,10.80
2014,12,10,00,59,10.80
2014,12,10,01,00,10.80
2014,12,10,01,01,10.80
2014,12,10,01,02,10.80
2014,12,10,01,03,10.80
2014,12,10,01,04,10.70
2014,12,10,01,05,10.70
2014,12,10,01,06,10.70
2014,12,10,01,07,10.70
2014,12,10,01,08,10.70
2014,12,10,01,09,10.70
2014,12,10,01,10,10.70
2014,12,10,01,11,10.70
2014,12,10,01,12,10.70
2014,12,10,01,13,10.70
2014,12,10,01,14,10.70
2014,12,10,01,15,10.60
2014,12,10,01,16,10.60
2014,12,10,01,17,10.60
2014,12,10,01,18,10.60
2014,12,10,01,19,10.60
2014,12,10,01,20,10.60
2014,12,10,01,21,10.60
2014,12,10,01,22,10.50
2014,12,10,01,23,10.50
2014,12,10,01,24,10.50
2014,12,10,01,25,10.50
2014,12,10,01,26,10.50
2014,12,10,01,27,10.50
2014,12,10,01,28,10.40
2014,12,10,01,29,10.40
2014,12,10,01,30,10.40
2014,12,10,01,31,10.30
2014,12,10,01,32,10.30
2014,12,10,01,33,10.30
2014,12,10,01,34,10.30
2014,12,10,01,35,10.30
2014,12,10,01,36,10.20
2014,12,10,01,37,10.20
2014,12,10,01,38,10.20
2014,12,10,01,39,10.20
2014,12,10,01,40,10.20
2014,12,10,01,41,10.20
2014,12,10,01,42,10.20
2014,12,10,01,43,10.20
2014,12,10,01,44,10.20
2014,12,10,01,45,10.10
2014,12,10,01,46,10.10
2014,12,10,01,47,10.10
2014,12,10,01,48,10.10
2014,12,10,01,49,10.10
2014,12,10,01,50,10.10
2014,12,10,01,51,10.10
2014,12,10,01,52,10.10
2014,12,10,01,53,10.10
2014,12,10,01,54,10.10
2014,12,10,01,55,10.10
2014,12,10,01,56,10.10
2014,12,10,01,57,10.00
2014,12,10,01,58,10.00
2014,12,10,01,59,10.00
2014,12,10,02,00,10.00
2014,12,10,02,01,10.00
2014,12,10,02,02,10.00
2014,12,10,02,03,9.90
2014,12,10,02,04,9.90
2014,12,10,02,05,9.90
2014,12,10,02,06,9.90
2014,12,10,02,07,10.00
2014,12,10,02,08,10.00
2014,12,10,02,09,10.00
2014,12,10,02,10,9.90
2014,12,10,02,11,9.90
2014,12,10,02,12,9.90
2014,12,10,02,13,9.90
2014,12,10,02,14,9.90
2014,12,10,02,15,9.90
2014,12,10,02,16,9.90
2014,12,10,02,17,9.90
2014,12,10,02,18,9.90
2014,12,10,02,19,9.90
2014,12,10,02,20,9.90
2014,12,10,02,21,9.90
2014,12,10,02,22,9.90
2014,12,10,02,23,9.90
2014,12,10,02,24,9.90
2014,12,10,02,25,9.90
2014,12,10,02,26,9.90
2014,12,10,02,27,9.80
2014,12,10,02,28,9.80
2014,12,10,02,29,9.80
2014,12,10,02,30,9.80
2014,12,10,02,31,9.80
2014,12,10,02,32,9.90
2014,12,10,02,33,9.90
2014,12,10,02,34,9.90
2014,12,10,02,35,9.90
2014,12,10,02,36,9.90
2014,12,10,02,37,9.90
2014,12,10,02,38,9.90
2014,12,10,02,39,9.90
2014,12,10,02,40,9.90
2014,12,10,02,41,9.90
2014,12,10,02,42,9.90
2014,12,10,02,43,9.90
2014,12,10,02,44,9.90
2014,12,10,02,45,9.90
2014,12,10,02,46,9.90
2014,12,10,02,47,9.90
2014,12,10,02,48,9.90
2014,12,10,02,49,9.80
2014,12,10,02,50,9.80
2014,12,10,02,51,9.80
2014,12,10,02,52,9.80
2014,12,10,02,53,9.90
2014,12,10,02,54,9.90
2014,12,10,02,55,9.90
2014,12,10,02,56,9.90
2014,12,10,02,57,9.90
2014,12,10,02,58,9.90
2014,12,10,02,59,9.90
2014,12,10,03,00,9.90
2014,12,10,03,01,10.00
2014,12,10,03,02,10.00
2014,12,10,03,03,10.00
2014,12,10,03,04,10.00
2014,12,10,03,05,10.00
2014,12,10,03,06,10.00
2014,12,10,03,07,9.90
2014,12,10,03,08,9.90
2014,12,10,03,09,9.90
2014,12,10,03,10,9.90
2014,12,10,03,11,9.90
2014,12,10,03,12,9.90
2014,12,10,03,13,9.90
2014,12,10,03,14,9.90
2014,12,10,03,15,9.90
2014,12,10,03,16,9.90
2014,12,10,03,17,9.90
2014,12,10,03,18,9.90
2014,12,10,03,19,9.90
2014,12,10,03,20,9.90
2014,12,10,03,21,9.90
2014,12,10,03,22,9.90
2014,12,10,03,23,9.90
2014,12,10,03,24,9.90
2014,12,10,03,25,9.90
2014,12,10,03,26,9.90
2014,12,10,03,27,9.90
2014,12,10,03,28,9.90
2014,12,10,03,29,9.90
2014,12,10,03,30,9.90
2014,12,10,03,31,10.00
2014,12,10,03,32,10.00
2014,12,10,03,33,10.00
2014,12,10,03,34,10.00
2014,12,10,03,35,10.00
2014,12,10,03,36,10.00
2014,12,10,03,37,10.00
2014,12,10,03,38,10.00
2014,12,10,03,39,9.90
2014,12,10,03,40,9.90
2014,12,10,03,41,9.90
2014,12,10,03,42,9.90
2014,12,10,03,43,9.90
2014,12,10,03,44,9.90
2014,12,10,03,45,9.90
2014,12,10,03,46,9.90
2014,12,10,03,47,9.90
2014,12,10,03,48,9.90
2014,12,10,03,49,9.90
2014,12,10,03,50,9.90
2014,12,10,03,51,9.90
2014,12,10,03,52,9.90
2014,12,10,03,53,9.90
2014,12,10,03,54,9.90
2014,12,10,03,55,9.90
2014,12,10,03,56,9.90
2014,12,10,03,57,9.90
2014,12,10,03,58,9.90
2014,12,10,03,59,9.90
2014,12,10,04,00,9.80
2014,12,10,04,01,9.80
2014,12,10,04,02,9.80
2014,12,10,04,03,9.80
2014,12,10,04,04,9.80
2014,12,10,04,05,9.80
2014,12,10,04,06,9.80
2014,12,10,04,07,9.80
2014,12,10,04,08,9.80
2014,12,10,04,09,9.80
2014,12,10,04,10,9.80
2014,12,10,04,11,9.80
2014,12,10,04,12,9.80
2014,12,10,04,13,9.80
2014,12,10,04,14,9.80
2014,12,10,04,15,9.80
2014,12,10,04,16,9.80
2014,12,10,04,17,9.80
2014,12,10,04,18,9.80
2014,12,10,04,19,9.80
2014,12,10,04,20,9.80
2014,12,10,04,21,9.70
2014,12,10,04,22,9.70
2014,12,10,04,23,9.70
2014,12,10,04,24,9.70
2014,12,10,04,25,9.70
2014,12,10,04,26,9.70
2014,12,10,04,27,9.70
2014,12,10,04,28,9.70
2014,12,10,04,29,9.70
2014,12,10,04,30,9.70
2014,12,10,04,31,9.70
2014,12,10,04,32,9.70
2014,12,10,04,33,9.70
2014,12,10,04,34,9.80
2014,12,10,04,35,9.80
2014,12,10,04,36,9.80
2014,12,10,04,37,9.80
2014,12,10,04,38,9.80
2014,12,10,04,39,9.80
2014,12,10,04,40,9.80
2014,12,10,04,41,9.80
2014,12,10,04,42,9.80
2014,12,10,04,43,9.80
2014,12,10,04,44,9.80
2014,12,10,04,45,9.80
2014,12,10,04,46,9.80
2014,12,10,04,47,9.80
2014,12,10,04,48,9.80
2014,12,10,04,49,9.80
2014,12,10,04,50,9.90
2014,12,10,04,51,9.90
2014,12,10,04,52,9.90
2014,12,10,04,53,9.90
2014,12,10,04,54,9.90
2014,12,10,04,55,9.90
2014,12,10,04,56,9.90
2014,12,10,04,57,10.00
2014,12,10,04,58,10.00
2014,12,10,04,59,10.00
2014,12,10,05,00,10.10
2014,12,10,05,01,10.10
2014,12,10,05,02,10.10
2014,12,10,05,03,10.10
2014,12,10,05,04,10.10
2014,12,10,05,05,10.10
2014,12,10,05,06,10.10
2014,12,10,05,07,10.10
2014,12,10,05,08,10.10
2014,12,10,05,09,10.20
2014,12,10,05,10,10.20
2014,12,10,05,11,10.20
2014,12,10,05,12,10.20
2014,12,10,05,13,10.20
2014,12,10,05,14,10.20
2014,12,10,05,15,10.20
2014,12,10,05,16,10.20
2014,12,10,05,17,10.20
2014,12,10,05,18,10.20
2014,12,10,05,19,10.20
2014,12,10,05,20,10.20
2014,12,10,05,21,10.20
2014,12,10,05,22,10.20
2014,12,10,05,23,10.20
2014,12,10,05,24,10.20
2014,12,10,05,25,10.20
2014,12,10,05,26,10.20
2014,12,10,05,27,10.20
2014,12,10,05,28,10.30
2014,12,10,05,29,10.30
2014,12,10,05,30,10.30
2014,12,10,05,31,10.30
2014,12,10,05,32,10.30
2014,12,10,05,33,10.30
2014,12,10,05,34,10.30
2014,12,10,05,35,10.30
2014,12,10,05,36,10.30
2014,12,10,05,37,10.30
2014,12,10,05,38,10.30
2014,12,10,05,39,10.30
2014,12,10,05,40,10.30
2014,12,10,05,41,10.30
2014,12,10,05,42,10.30
2014,12,10,05,43,10.30
2014,12,10,05,44,10.30
2014,12,10,05,45,10.20
2014,12,10,05,46,10.30
2014,12,10,05,47,10.30
2014,12,10,05,48,10.30
2014,12,10,05,49,10.30
2014,12,10,05,50,10.30
2014,12,10,05,51,10.30
2014,12,10,05,52,10.30
2014,12,10,05,53,10.30
2014,12,10,05,54,10.30
2014,12,10,05,55,10.30
2014,12,10,05,56,10.30
2014,12,10,05,57,10.30
2014,12,10,05,58,10.30
2014,12,10,05,59,10.30
2014,12,10,06,00,10.30
2014,12,10,06,01,10.30
2014,12,10,06,02,10.30
2014,12,10,06,03,10.30
2014,12,10,06,04,10.30
2014,12,10,06,05,10.30
2014,12,10,06,06,10.30
2014,12,10,06,07,10.30
2014,12,10,06,08,10.30
2014,12,10,06,09,10.30
2014,12,10,06,10,10.30
2014,12,10,06,11,10.30
2014,12,10,06,12,10.30
2014,12,10,06,13,10.30
2014,12,10,06,14,10.30
2014,12,10,06,15,10.30
2014,12,10,06,16,10.30
2014,12,10,06,17,10.30
2014,12,10,06,18,10.30
2014,12,10,06,19,10.30
2014,12,10,06,20,10.30
2014,12,10,06,21,10.40
2014,12,10,06,22,10.40
2014,12,10,06,23,10.40
2014,12,10,06,24,10.40
2014,12,10,06,25,10.40
2014,12,10,06,26,10.50
2014,12,10,06,27,10.50
2014,12,10,06,28,10.50
2014,12,10,06,29,10.50
2014,12,10,06,30,10.50
2014,12,10,06,31,10.50
2014,12,10,06,32,10.60
2014,12,10,06,33,10.60
2014,12,10,06,34,10.60
2014,12,10,06,35,10.60
2014,12,10,06,36,10.60
2014,12,10,06,37,10.60
2014,12,10,06,38,10.60
2014,12,10,06,39,10.70
2014,12,10,06,40,10.70
2014,12,10,06,41,10.70
2014,12,10,06,42,10.70
2014,12,10,06,43,10.70
2014,12,10,06,44,10.70
2014,12,10,06,45,10.70
2014,12,10,06,46,10.70
2014,12,10,06,47,10.70
2014,12,10,06,48,10.70
2014,12,10,06,49,10.70
2014,12,10,06,50,10.70
2014,12,10,06,51,10.70
2014,12,10,06,52,10.70
2014,12,10,06,53,10.70
2014,12,10,06,54,10.70
2014,12,10,06,55,10.80
2014,12,10,06,56,10.80
2014,12,10,06,57,10.80
2014,12,10,06,58,10.80
2014,12,10,06,59,10.80
2014,12,10,07,00,10.90
2014,12,10,07,01,10.90
2014,12,10,07,02,10.90
2014,12,10,07,03,10.80
2014,12,10,07,04,10.80
2014,12,10,07,05,10.80
2014,12,10,07,06,10.80
2014,12,10,07,07,10.80
2014,12,10,07,08,10.80
2014,12,10,07,09,10.80
2014,12,10,07,10,10.80
2014,12,10,07,11,10.80
2014,12,10,07,12,10.80
2014,12,10,07,13,10.80
2014,12,10,07,14,10.80
2014,12,10,07,15,10.90
2014,12,10,07,16,10.90
2014,12,10,07,17,10.90
2014,12,10,07,18,10.90
2014,12,10,07,19,10.90
2014,12,10,07,20,10.90
2014,12,10,07,21,10.90
2014,12,10,07,22,10.90
2014,12,10,07,23,11.00
2014,12,10,07,24,11.00
2014,12,10,07,25,11.00
2014,12,10,07,26,11.00
2014,12,10,07,27,11.00
2014,12,10,07,28,10.90
2014,12,10,07,29,10.90
2014,12,10,07,30,10.90
2014,12,10,07,31,10.90
2014,12,10,07,32,10.90
2014,12,10,07,33,10.90
2014,12,10,07,34,11.00
2014,12,10,07,35,11.00
2014,12,10,07,36,11.00
2014,12,10,07,37,11.00
2014,12,10,07,38,11.00
2014,12,10,07,39,11.00
2014,12,10,07,40,11.00
2014,12,10,07,41,11.00
2014,12,10,07,42,11.00
2014,12,10,07,43,11.00
2014,12,10,07,44,11.10
2014,12,10,07,45,11.10
2014,12,10,07,46,11.10
2014,12,10,07,47,11.10
2014,12,10,07,48,11.10
2014,12,10,07,49,11.10
2014,12,10,07,50,11.10
2014,12,10,07,51,11.10
2014,12,10,07,52,11.10
2014,12,10,07,53,11.10
2014,12,10,07,54,11.10
2014,12,10,07,55,11.10
2014,12,10,07,56,11.10
2014,12,10,07,57,11.10
2014,12,10,07,58,11.10
2014,12,10,07,59,11.10
2014,12,10,08,00,11.10
2014,12,10,08,01,11.10
2014,12,10,08,02,11.10
2014,12,10,08,03,11.10
2014,12,10,08,04,11.10
2014,12,10,08,05,11.10
2014,12,10,08,06,11.10
2014,12,10,08,07,11.10
2014,12,10,08,08,11.10
2014,12,10,08,09,11.10
2014,12,10,08,10,11.10
2014,12,10,08,11,11.10
2014,12,10,08,12,11.10
2014,12,10,08,13,11.10
2014,12,10,08,14,11.10
2014,12,10,08,15,11.10
2014,12,10,08,16,11.10
2014,12,10,08,17,11.10
2014,12,10,08,18,11.10
2014,12,10,08,19,11.10
2014,12,10,08,20,11.10
2014,12,10,08,21,11.10
2014,12,10,08,22,11.10
2014,12,10,08,23,11.10
2014,12,10,08,24,11.10
2014,12,10,08,25,11.10
2014,12,10,08,26,11.10
2014,12,10,08,27,11.10
2014,12,10,08,28,11.10
2014,12,10,08,29,11.10
2014,12,10,08,30,11.10
2014,12,10,08,31,11.10
2014,12,10,08,32,11.10
2014,12,10,08,33,11.10
2014,12,10,08,34,11.20
2014,12,10,08,35,11.20
2014,12,10,08,36,11.20
2014,12,10,08,37,11.20
2014,12,10,08,38,11.20
2014,12,10,08,39,11.20
2014,12,10,08,40,11.20
2014,12,10,08,41,11.20
2014,12,10,08,42,11.20
2014,12,10,08,43,11.20
2014,12,10,08,44,11.20
2014,12,10,08,45,11.20
2014,12,10,08,46,11.20
2014,12,10,08,47,11.20
2014,12,10,08,48,11.20
2014,12,10,08,49,11.20
2014,12,10,08,50,11.20
2014,12,10,08,51,11.20
2014,12,10,08,52,11.20
2014,12,10,08,53,11.20
2014,12,10,08,54,11.20
2014,12,10,08,55,11.20
2014,12,10,08,56,11.20
2014,12,10,08,57,11.20
2014,12,10,08,58,11.20
2014,12,10,08,59,11.20
2014,12,10,09,00,11.20
2014,12,10,09,01,11.10
2014,12,10,09,02,11.20
2014,12,10,09,03,11.20
2014,12,10,09,04,11.20
2014,12,10,09,05,11.20
2014,12,10,09,06,11.20
2014,12,10,09,07,11.10
2014,12,10,09,08,11.10
2014,12,10,09,09,11.10
2014,12,10,09,10,11.10
2014,12,10,09,11,11.10
2014,12,10,09,12,11.10
2014,12,10,09,13,11.10
2014,12,10,09,14,11.10
2014,12,10,09,15,11.10
2014,12,10,09,16,11.10
2014,12,10,09,17,11.10
2014,12,10,09,18,11.10
2014,12,10,09,19,11.10
2014,12,10,09,20,11.10
2014,12,10,09,21,11.10
2014,12,10,09,22,11.10
2014,12,10,09,23,11.20
2014,12,10,09,24,11.20
2014,12,10,09,25,11.20
2014,12,10,09,26,11.20
2014,12,10,09,27,11.20
2014,12,10,09,28,11.20
2014,12,10,09,29,11.20
2014,12,10,09,30,11.20
2014,12,10,09,31,11.20
2014,12,10,09,32,11.20
2014,12,10,09,33,11.20
2014,12,10,09,34,11.20
2014,12,10,09,35,11.20
2014,12,10,09,36,11.20
2014,12,10,09,37,11.20
2014,12,10,09,38,11.20
2014,12,10,09,39,11.20
2014,12,10,09,40,11.20
2014,12,10,09,41,11.20
2014,12,10,17,39,10.20
2014,12,10,17,40,10.20
2014,12,10,17,41,10.20
2014,12,10,17,42,10.20
2014,12,10,17,43,10.20
2014,12,10,17,44,10.20
2014,12,10,17,45,10.20
2014,12,10,17,46,10.20
2014,12,10,17,47,10.20
2014,12,10,17,48,10.20
2014,12,10,17,49,10.20
2014,12,10,17,50,10.20
2014,12,10,17,51,10.20
2014,12,10,17,52,10.20
2014,12,10,17,53,10.20
2014,12,10,17,54,10.20
2014,12,10,17,55,10.20
2014,12,10,17,56,10.20
2014,12,10,17,57,10.20
2014,12,10,17,58,10.20
2014,12,10,17,59,10.20
2014,12,10,18,00,10.20
2014,12,10,18,01,10.20
2014,12,10,18,02,10.20
2014,12,10,18,03,10.20
2014,12,10,18,04,10.20
2014,12,10,18,05,10.20
2014,12,10,18,06,10.20
2014,12,10,18,07,10.20
2014,12,10,18,08,10.20
2014,12,10,18,09,10.20
2014,12,10,18,10,10.20
2014,12,10,18,11,10.20
2014,12,10,18,12,10.20
2014,12,10,18,13,10.20
2014,12,10,18,14,10.20
2014,12,10,18,15,10.20
2014,12,10,18,16,10.20
2014,12,10,18,17,10.20
2014,12,10,18,18,10.20
2014,12,10,18,19,10.10
2014,12,10,18,20,10.10
2014,12,10,18,21,10.10
2014,12,10,18,22,10.10
2014,12,10,18,23,10.10
2014,12,10,18,24,10.10
2014,12,10,18,25,10.10
2014,12,10,18,26,10.10
2014,12,10,18,27,10.10
2014,12,10,18,28,10.10
2014,12,10,18,29,10.10
2014,12,10,18,30,10.10
2014,12,10,18,31,10.10
2014,12,10,18,32,10.10
2014,12,10,18,33,10.10
2014,12,10,18,34,10.00
2014,12,10,18,35,10.10
2014,12,10,18,36,10.00
2014,12,10,18,37,10.00
2014,12,10,18,38,10.00
2014,12,10,18,39,10.00
2014,12,10,18,40,10.00
2014,12,10,18,41,10.00
2014,12,10,18,42,10.00
2014,12,10,18,43,10.00
2014,12,10,18,44,9.90
2014,12,10,18,45,10.00
2014,12,10,18,46,9.90
2014,12,10,18,47,10.00
2014,12,10,18,48,10.00
2014,12,10,18,49,10.00
2014,12,10,18,50,10.00
2014,12,10,18,51,10.00
2014,12,10,18,52,10.00
2014,12,10,18,53,10.00
2014,12,10,18,54,10.00
2014,12,10,18,55,10.00
2014,12,10,18,56,10.00
2014,12,10,18,57,9.90
2014,12,10,18,58,9.90
2014,12,10,18,59,9.90
2014,12,10,19,00,9.90
2014,12,10,19,01,9.90
2014,12,10,19,02,9.90
2014,12,10,19,03,9.90
2014,12,10,19,04,9.90
2014,12,10,19,05,9.90
2014,12,10,19,06,9.90
2014,12,10,19,07,9.90
2014,12,10,19,08,9.90
2014,12,10,19,09,9.90
2014,12,10,19,10,9.90
2014,12,10,19,11,9.90
2014,12,10,19,12,9.90
2014,12,10,19,13,9.90
2014,12,10,19,14,9.90
2014,12,10,19,15,9.90
2014,12,10,19,16,9.80
2014,12,10,19,17,9.80
2014,12,10,19,18,9.80
2014,12,10,19,19,9.80
2014,12,10,19,20,9.80
2014,12,10,19,21,9.80
2014,12,10,19,22,9.80
2014,12,10,19,23,9.80
2014,12,10,19,24,9.80
2014,12,10,19,25,9.80
2014,12,10,19,26,9.80
2014,12,10,19,27,9.80
2014,12,10,19,28,9.80
2014,12,10,19,29,9.80
2014,12,10,19,30,9.90
2014,12,10,19,31,9.80
2014,12,10,19,32,9.90
2014,12,10,19,33,9.80
2014,12,10,19,34,9.80
2014,12,10,19,35,9.80
2014,12,10,19,36,9.80
2014,12,10,19,37,9.80
2014,12,10,19,38,9.80
2014,12,10,19,39,9.80
2014,12,10,19,40,9.80
2014,12,10,19,41,9.80
2014,12,10,19,42,9.80
2014,12,10,19,43,9.80
2014,12,10,19,44,9.80
2014,12,10,19,45,9.80
2014,12,10,19,46,9.80
2014,12,10,19,47,9.80
2014,12,10,19,48,9.80
2014,12,10,19,49,9.80
2014,12,10,19,50,9.70
2014,12,10,19,51,9.70
2014,12,10,19,52,9.70
2014,12,10,19,53,9.70
2014,12,10,19,54,9.70
2014,12,10,19,55,9.70
2014,12,10,19,56,9.70
2014,12,10,19,57,9.70
2014,12,10,19,58,9.70
2014,12,10,19,59,9.70
2014,12,10,20,00,9.70
2014,12,10,20,01,9.60
2014,12,10,20,02,9.60
2014,12,10,20,03,9.60
2014,12,10,20,04,9.60
2014,12,10,20,05,9.60
2014,12,10,20,06,9.60
2014,12,10,20,07,9.60
2014,12,10,20,08,9.60
2014,12,10,20,09,9.60
2014,12,10,20,10,9.60
2014,12,10,20,11,9.60
2014,12,10,20,12,9.60
2014,12,10,20,13,9.60
2014,12,10,20,14,9.60
2014,12,10,20,15,9.60
2014,12,10,20,16,9.60
2014,12,10,20,17,9.60
2014,12,10,20,18,9.60
2014,12,10,20,19,9.50
2014,12,10,20,20,9.50
2014,12,10,20,21,9.50
2014,12,10,20,22,9.50
2014,12,10,20,23,9.50
2014,12,10,20,24,9.50
2014,12,10,20,25,9.50
2014,12,10,20,26,9.50
2014,12,10,20,27,9.40
2014,12,10,20,28,9.40
2014,12,10,20,29,9.40
2014,12,10,20,30,9.40
2014,12,10,20,31,9.40
2014,12,10,20,32,9.40
2014,12,10,20,33,9.40
2014,12,10,20,34,9.40
2014,12,10,20,35,9.40
2014,12,10,20,36,9.40
2014,12,10,20,37,9.40
2014,12,10,20,38,9.40
2014,12,10,20,39,9.30
2014,12,10,20,40,9.30
2014,12,10,20,41,9.30
2014,12,10,20,42,9.30
2014,12,10,20,43,9.30
2014,12,10,20,44,9.30
2014,12,10,20,45,9.30
2014,12,10,20,46,9.30
2014,12,10,20,47,9.30
2014,12,10,20,48,9.30
2014,12,10,20,49,9.30
2014,12,10,20,50,9.30
2014,12,10,20,51,9.30
2014,12,10,20,52,9.30
2014,12,10,20,53,9.30
2014,12,10,20,54,9.30
2014,12,10,20,55,9.30
2014,12,10,20,56,9.30
2014,12,10,20,57,9.30
2014,12,10,20,58,9.30
2014,12,10,20,59,9.20
2014,12,10,21,00,9.20
2014,12,10,21,01,9.20
2014,12,10,21,02,9.20
2014,12,10,21,03,9.20
2014,12,10,21,04,9.20
2014,12,10,21,05,9.20
2014,12,10,21,06,9.20
2014,12,10,21,07,9.20
2014,12,10,21,08,9.20
2014,12,10,21,09,9.20
2014,12,10,21,10,9.10
2014,12,10,21,11,9.10
2014,12,10,21,12,9.10
2014,12,10,21,13,9.10
2014,12,10,21,14,9.10
2014,12,10,21,15,9.10
2014,12,10,21,16,9.10
2014,12,10,21,17,9.10
2014,12,10,21,18,9.10
2014,12,10,21,19,9.10
2014,12,10,21,20,9.00
2014,12,10,21,21,9.00
2014,12,10,21,22,9.00
2014,12,10,21,23,9.00
2014,12,10,21,24,9.00
2014,12,10,21,25,9.00
2014,12,10,21,26,9.00
2014,12,10,21,27,9.00
2014,12,10,21,28,9.00
2014,12,10,21,29,8.90
2014,12,10,21,30,8.90
2014,12,10,21,31,8.90
2014,12,10,21,32,8.90
2014,12,10,21,33,8.90
2014,12,10,21,34,8.90
2014,12,10,21,35,8.90
2014,12,10,21,36,8.90
2014,12,10,21,37,8.90
2014,12,10,21,38,8.80
2014,12,10,21,39,8.80
2014,12,10,21,40,8.80
2014,12,10,21,41,8.80
2014,12,10,21,42,8.80
2014,12,10,21,43,8.80
2014,12,10,21,44,8.80
2014,12,10,21,45,8.80
2014,12,10,21,46,8.70
2014,12,10,21,47,8.70
2014,12,10,21,48,8.70
2014,12,10,21,49,8.70
2014,12,10,21,50,8.70
2014,12,10,21,51,8.70
2014,12,10,21,52,8.70
2014,12,10,21,53,8.70
2014,12,10,21,54,8.60
2014,12,10,21,55,8.60
2014,12,10,21,56,8.60
2014,12,10,21,57,8.60
2014,12,10,21,58,8.60
2014,12,10,21,59,8.60
2014,12,10,22,00,8.60
2014,12,10,22,01,8.60
2014,12,10,22,02,8.60
2014,12,10,22,03,8.60
2014,12,10,22,04,8.60
2014,12,10,22,05,8.60
2014,12,10,22,06,8.60
2014,12,10,22,07,8.60
2014,12,10,22,08,8.60
2014,12,10,22,09,8.60
2014,12,10,22,10,8.60
2014,12,10,22,11,8.60
2014,12,10,22,12,8.60
2014,12,10,22,13,8.60
2014,12,10,22,14,8.60
2014,12,10,22,15,8.60
2014,12,10,22,16,8.60
2014,12,10,22,17,8.60
2014,12,10,22,18,8.60
2014,12,10,22,19,8.60
2014,12,10,22,20,8.60
2014,12,10,22,21,8.60
2014,12,10,22,22,8.60
2014,12,10,22,23,8.60
2014,12,10,22,24,8.70
2014,12,10,22,25,8.70
2014,12,10,22,26,8.70
2014,12,10,22,27,8.70
2014,12,10,22,28,8.70
2014,12,10,22,29,8.70
2014,12,10,22,30,8.70
2014,12,10,22,31,8.80
2014,12,10,22,32,8.80
2014,12,10,22,33,8.80
2014,12,10,22,34,8.80
2014,12,10,22,35,8.80
2014,12,10,22,36,8.80
2014,12,10,22,37,8.80
2014,12,10,22,38,8.80
2014,12,10,22,39,8.80
2014,12,10,22,40,8.80
2014,12,10,22,41,8.80
2014,12,10,22,42,8.80
2014,12,10,22,43,8.80
2014,12,10,22,44,8.80
2014,12,10,22,45,8.80
2014,12,10,22,46,8.80
2014,12,10,22,47,8.80
2014,12,10,22,48,8.80
2014,12,10,22,49,8.80
2014,12,10,22,50,8.80
2014,12,10,22,51,8.80
2014,12,10,22,52,8.80
2014,12,10,22,53,8.80
2014,12,10,22,54,8.80
2014,12,10,22,55,8.80
2014,12,10,22,56,8.80
2014,12,10,22,57,8.80
2014,12,10,22,58,8.80
2014,12,10,22,59,8.80
2014,12,10,23,00,8.80
2014,12,10,23,01,8.90
2014,12,10,23,02,8.90
2014,12,10,23,03,8.90
2014,12,10,23,04,8.90
2014,12,10,23,05,8.90
2014,12,10,23,06,8.90
2014,12,10,23,07,8.90
2014,12,10,23,08,8.90
2014,12,10,23,09,8.90
2014,12,10,23,10,8.90
2014,12,10,23,11,8.90
2014,12,10,23,12,8.90
2014,12,10,23,13,8.90
2014,12,10,23,14,8.80
2014,12,10,23,15,8.80
2014,12,10,23,16,8.80
2014,12,10,23,17,8.80
2014,12,10,23,18,8.80
2014,12,10,23,19,8.80
2014,12,10,23,20,8.80
2014,12,10,23,21,8.80
2014,12,10,23,22,8.80
2014,12,10,23,23,8.80
2014,12,10,23,24,8.80
2014,12,10,23,25,8.80
2014,12,10,23,26,8.80
2014,12,10,23,27,8.70
2014,12,10,23,28,8.70
2014,12,10,23,29,8.70
2014,12,10,23,30,8.70
2014,12,10,23,31,8.70
2014,12,10,23,32,8.60
2014,12,10,23,33,8.60
2014,12,10,23,34,8.60
2014,12,10,23,35,8.60
2014,12,10,23,36,8.60
2014,12,10,23,37,8.60
2014,12,10,23,38,8.60
2014,12,10,23,39,8.60
2014,12,10,23,40,8.60
2014,12,10,23,41,8.60
2014,12,10,23,42,8.50
2014,12,10,23,43,8.50
2014,12,10,23,44,8.50
2014,12,10,23,45,8.50
2014,12,10,23,46,8.40
2014,12,10,23,47,8.40
2014,12,10,23,48,8.40
2014,12,10,23,49,8.40
2014,12,10,23,50,8.40
2014,12,10,23,51,8.40
2014,12,10,23,52,8.40
2014,12,10,23,53,8.40
2014,12,10,23,54,8.40
2014,12,10,23,55,8.40
2014,12,10,23,56,8.40
2014,12,10,23,57,8.40
2014,12,10,23,58,8.40
2014,12,10,23,59,8.40
